Voltar ao catálogo

MIDAS 4

AtivoMilitarPO
NORAD 192·PAYLOAD·🇺🇸 United States

Lançado Oct 21, 1961 de Vandenberg Space Force Base

Loading…

Próximas Passagens (próximas 24 horas)

TLE

AtualizadoSource: Space-Track

Época: Sep 8, 2026, 08:46 UTC

1 00192U 61028A   26251.36561175  .00000020  00000-0  10742-1 0  9996
2 00192  95.8473 241.1124 0134258 246.1799 112.4929  8.67768005 55371

Acompanhe MIDAS 4 em tempo real com AllMySat

Download on the App Store